Weather Roundup
Issued by NWS Springfield, MO

Home | Current Version | Previous Version | Text Only | Print | Product List | Glossary On
Versions: 1 2 3 4 5 6 7 8 9 10 11 12 13 14 15 16 17 18 19 20 21 22 23 24 25 26 27 28 29 30 31 32 33 34 35 36 37 38 39 40 41 42 43 44 45 46 47 48 49 50
000
NZUS99 KSGF 211907
HRRSGF

HOURLY WEATHER
NATIONAL WEATHER SERVICE SPRINGFIELD MO
200 PM CDT SAT APR 21 2018

......SGF CWA......

CITY           SKY/WX    TMP DP  RH WIND       PRES   REMARKS
SPRINGFIELD    MOSUNNY   66  37  34 SE17G28   30.11F
JOPLIN         PTSUNNY   64  43  46 E14G21    30.10F
WEST PLAINS    CLOUDY    68  33  27 SE13G21   30.14F
ROLLA          CLOUDY    64  31  28 E10       30.17F
OSAGE BEACH    CLOUDY    68  32  26 SE9G16    30.17F
BRANSON        PTSUNNY   64  37  36 SE15G23   30.11F

......SURROUNDING SGF CWA......

CITY           SKY/WX    TMP DP  RH WIND       PRES   REMARKS
CHANUTE        CLOUDY    57  39  51 E7        30.12R
PARSONS        LGT RAIN  56  44  64 VRB3      30.11F
COFFEYVILLE    LGT RAIN  54  48  80 NW7       30.09F
EMPORIA        LGT RAIN  47  42  83 NE14      30.16F
GROVE OK       CLOUDY    63  37  39 E7        30.08F
ROGERS AR      CLOUDY    65  41  41 SE9       30.07F
SILOAM SPRINGS PTSUNNY   63  43  48 S10       30.08F
HARRISON AR    SUNNY     65  40  39 E16G25    30.10F
NEAR YELLVILLE PTSUNNY   69  41  36 E13       30.11F

......KANSAS AND MISSOURI......

CITY           SKY/WX    TMP DP  RH WIND       PRES   REMARKS
KANSAS CTY INT CLOUDY    58  31  35 NE14      30.18F
DOWNTOWN KC    CLOUDY    60  31  33 NE10      30.17F
COLUMBIA       CLOUDY    64  29  26 E13       30.19F
SEDALIA        CLOUDY    65  34  31 E10G17    30.19F
ST JOSEPH      CLOUDY    56  31  38 NE12      30.22F
ST LOUIS       CLOUDY    65  31  28 E17G24    30.24F
SPIRIT OF STL  CLOUDY    65  31  28 E15G23    30.21F
KIRKSVILLE     CLOUDY    62  30  29 E16G25    30.26F
WICHITA        LGT RAIN  47  45  93 NE16      30.12F
TOPEKA         CLOUDY    48  45  89 N9        30.19F
OLATHE         CLOUDY    59  35  40 E9        30.15F

......TENNESSEE......

CITY           SKY/WX    TMP DP  RH WIND       PRES   REMARKS
MEMPHIS        PTSUNNY   73  42  32 SE10      30.13F
NASHVILLE      FAIR      75  34  22 VRB5      30.25F

......ARKANSAS.......

CITY           SKY/WX    TMP DP  RH WIND       PRES   REMARKS
FAYETTEVILLE   CLOUDY    67  41  38 S13G25    30.06F
FT SMITH       CLOUDY    68  44  42 SE9       30.02F
LITTLE ROCK    CLOUDY    72  46  39 SE15G23   30.09F

......OKLAHOMA.......

CITY           SKY/WX    TMP DP  RH WIND       PRES   REMARKS
TULSA          LGT RAIN  49  47  93 N5        30.06F FOG
PONCA CITY     LGT RAIN  47  44  90 NE14      30.08F
MCALESTER      LGT RAIN  50  48  93 N10       30.03R FOG
OKLAHOMA CITY  LGT RAIN  48  46  93 N8        30.04R FOG

......IOWA............

CITY           SKY/WX    TMP DP  RH WIND       PRES   REMARKS
DES MOINES     CLOUDY    57  25  29 E10       30.31F
QUAD CITIES    FAIR      60  29  30 E17       30.34F

......ILLINOIS........

CITY           SKY/WX    TMP DP  RH WIND       PRES   REMARKS
QUINCY         CLOUDY    62  28  27 E12       30.28F
CHICAGO        CLOUDY    52  26  36 N6        30.42R





USA.gov is the U.S. government's official web portal to all federal, state and local government web resources and services.